Location: Slanting_Bridge
(35.6330°N, 80.9830°W)
Time: 18:27:03
(UTC-04:00)

Amateur Radio Satellites - All Passes

Search period start: 02 August 2015 17:57
Search period end: 03 August 2015 17:57
Location: Slanting_Bridge, 35.6330°N, 80.9830°W

Satellite Date Start Highest point End Downlink Frequencies (MHz)
Time Altitude Azimuth
CUTE-I 02 Aug 17:57:40 18:01:42 23° 68° (ENE) 18:05:53 437.470
SO-50 02 Aug 17:59:20 18:03:27 26° 50° (NE) 18:07:33 436.795
MOZHAYETS 4 02 Aug 18:06:07 18:10:44 70° 284° (WNW) 18:15:17
Cosmos 2499 02 Aug 18:10:18 18:16:35 22° 67° (ENE) 18:23:19 435.465 / 435.565
STARS 02 Aug 18:12:16 18:14:04 12° 294° (WNW) 18:15:40 437.465
PHONESAT 2.4 02 Aug 18:27:48 18:29:12 12° 143° (SE) 18:30:44 2401.200-2431.200
CUBESAT XI-V 02 Aug 18:29:07 18:31:31 14° 91° (E) 18:34:09 437.345
Cubesat XI-IV 02 Aug 18:40:46 18:46:02 60° 74° (ENE) 18:51:20 437.490
PCSat 02 Aug 18:54:33 18:59:58 68° 62° (ENE) 19:05:21 145.827
VERMONT LUNAR 02 Aug 19:23:23 19:26:26 44° 347° (NNW) 19:29:31 437.305
GONETS M04 02 Aug 19:30:21 19:37:38 29° 274° (W) 19:44:40
CUTE-I 02 Aug 19:36:31 19:41:33 40° 262° (W) 19:46:34 437.470
STRAND 1 02 Aug 19:36:34 19:40:32 23° 94° (E) 19:44:36 437.568
SO-50 02 Aug 19:39:35 19:44:05 35° 246° (WSW) 19:48:24 436.795
ISS 02 Aug 19:40:35 19:41:54 12° 128° (SE) 19:43:20 145.825
HO-68 02 Aug 19:49:06 19:54:05 22° 62° (ENE) 19:59:21 435.675
Cosmos 2499 02 Aug 20:01:53 20:10:41 74° 266° (W) 20:19:28 435.465 / 435.565
PHONESAT 2.4 02 Aug 20:03:18 20:06:47 68° 156° (SSE) 20:10:17 2401.200-2431.200
CUBESAT XI-V 02 Aug 20:04:52 20:09:15 45° 286° (WNW) 20:13:36 437.345
SEEDS 02 Aug 20:11:48 20:12:36 11° 67° (ENE) 20:13:41 437.485
CUTE 1.7 + AOD 2 02 Aug 20:15:40 20:18:07 16° 69° (ENE) 20:20:45 437.475
RS-15 02 Aug 20:23:14 20:31:17 26° 105° (ESE) 20:40:00 29.354- 29.394
CANX-2 02 Aug 20:23:31 20:26:42 21° 71° (ENE) 20:30:01 2200.000
Cubesat XI-IV 02 Aug 20:23:34 20:26:36 15° 270° (W) 20:29:21 437.490
DOVE 4 02 Aug 20:24:46 20:28:03 24° 71° (ENE) 20:31:26 437.250
PRISM 02 Aug 20:27:04 20:31:10 67° 101° (ESE) 20:35:13 437.425
AAUSAT CUBESAT 2 02 Aug 20:33:02 20:34:41 12° 68° (ENE) 20:36:34 437.432
PCSat 02 Aug 20:40:11 20:42:52 13° 255° (WSW) 20:45:13 145.827
BRITE-PL 02 Aug 20:41:20 20:45:45 64° 259° (W) 20:49:55 437.365/2234.400
GOMX 1 02 Aug 20:43:35 20:47:49 73° 77° (ENE) 20:51:57 467.674
VERMONT LUNAR 02 Aug 21:00:37 21:03:32 32° 4° (N) 21:06:27 437.305
ISS 02 Aug 21:14:52 21:18:02 50° 321° (NW) 21:21:13 145.825
STRAND 1 02 Aug 21:15:12 21:19:49 35° 289° (WNW) 21:24:22 437.568
COMPASS 1 02 Aug 21:25:49 21:29:58 64° 77° (ENE) 21:34:10 437.405
ZACube-1 02 Aug 21:31:30 21:33:54 15° 68° (ENE) 21:36:31 437.345
HO-68 02 Aug 21:34:11 21:41:16 67° 257° (WSW) 21:48:24 435.675
DELFI C3 02 Aug 21:40:36 21:43:37 21° 71° (ENE) 21:46:46 145.870
PHONESAT 2.4 02 Aug 21:41:33 21:44:53 40° 351° (N) 21:48:14 2401.200-2431.200
SEEDS 02 Aug 21:43:46 21:47:56 58° 260° (W) 21:52:10 437.485
CUTE 1.7 + AOD 2 02 Aug 21:49:44 21:53:44 39° 262° (W) 21:57:45 437.475
FUNcube-1 02 Aug 21:51:16 21:54:41 25° 71° (ENE) 21:58:14 145.935
UWE-3 02 Aug 21:57:41 22:01:35 41° 74° (ENE) 22:05:38 435.000/436.395/437.385
CINEMA 3 02 Aug 21:57:51 22:01:56 61° 260° (W) 22:06:06 145.822/145.860
CANX-2 02 Aug 21:58:48 22:02:29 27° 265° (W) 22:06:09 2200.000
Cosmos 2499 02 Aug 21:59:26 22:02:40 12° 281° (W) 22:05:05 435.465 / 435.565
Oscar 11 02 Aug 22:00:08 22:04:23 58° 75° (ENE) 22:08:40 145.826/435.025
DOVE 4 02 Aug 22:02:33 22:05:49 22° 266° (W) 22:08:59 437.250
HUMSAT D 02 Aug 22:04:01 22:06:07 14° 68° (ENE) 22:08:26 437.325/437.525
AAUSAT CUBESAT 2 02 Aug 22:05:50 22:09:53 48° 261° (W) 22:13:59 437.432
CUBEBUG 2 02 Aug 22:16:42 22:20:52 87° 258° (WSW) 22:25:10 437.445
BEESAT 3 02 Aug 22:26:16 22:27:13 11° 109° (ESE) 22:28:25 437.485
RS-15 02 Aug 22:31:51 22:42:44 73° 303° (WNW) 22:54:00 29.354- 29.394
DX 1 02 Aug 22:33:32 22:36:53 23° 70° (ENE) 22:40:21 434.975-435.025
VERMONT LUNAR 02 Aug 22:37:20 22:40:30 74° 19° (NNE) 22:43:40 437.305
M-CUBED/EXP-1 PRIME 02 Aug 22:49:46 22:54:25 49° 103° (ESE) 22:58:52 437.505
UNISAT 6 02 Aug 22:50:35 22:53:02 15° 91° (E) 22:55:44 437.425
VELOX 1 02 Aug 22:54:42 22:58:06 23° 70° (ENE) 23:01:35 145.980
50 SAT 02 Aug 22:56:47 22:59:57 25° 72° (ENE) 23:03:14 437.505
ZACube-1 02 Aug 23:06:04 23:09:58 37° 262° (W) 23:13:57 437.345
ESTCUBE 1 02 Aug 23:13:17 23:16:58 26° 71° (ENE) 23:20:45 437.505/2401.250
DELFI C3 02 Aug 23:15:11 23:18:35 25° 265° (W) 23:21:55 145.870
AUBIESAT-1 02 Aug 23:17:18 23:22:03 85° 109° (ESE) 23:26:36 437.475
PHONESAT 2.4 02 Aug 23:19:55 23:23:16 39° 8° (N) 23:26:35 2401.200-2431.200
BEESAT 2 02 Aug 23:23:46 23:27:35 40° 115° (ESE) 23:31:29 435.950
FUNcube-1 02 Aug 23:27:40 23:30:59 22° 266° (W) 23:34:16 145.935
TIGRISAT 02 Aug 23:31:34 23:36:00 40° 98° (E) 23:40:26 435.000
ANTELSAT 02 Aug 23:34:07 23:38:38 45° 99° (E) 23:43:09 437.575/2403.000
AIST 2 02 Aug 23:35:00 23:35:05 10° 109° (ESE) 23:35:27 435.215
Cosmos 2491 02 Aug 23:35:14 23:43:30 47° 76° (ENE) 23:51:49 435.465 / 435.565
UWE-3 02 Aug 23:36:16 23:38:25 13° 270° (W) 23:40:22 435.000/436.395/437.385
UKube-1 02 Aug 23:37:33 23:41:50 69° 258° (WSW) 23:46:09 .
HUMSAT D 02 Aug 23:37:38 23:41:32 40° 262° (W) 23:45:29 437.325/437.525
AISAT 02 Aug 23:51:32 23:55:55 75° 258° (WSW) 00:00:20 437.250
YUBILEINY 02 Aug 23:53:24 00:00:15 28° 85° (E) 00:07:27 435.215
POLYITAN 1 02 Aug 23:59:38 00:03:23 30° 96° (E) 00:07:12 437.675
CUBEBUG 1 02 Aug 23:59:52 00:04:12 72° 76° (ENE) 00:08:32 437.445
BEESAT 3 03 Aug 00:00:46 00:04:44 53° 302° (WNW) 00:08:45 437.485
AIST 1 03 Aug 00:04:30 00:08:46 69° 264° (W) 00:12:58
DX 1 03 Aug 00:09:21 00:13:03 26° 264° (W) 00:16:41 434.975-435.025
BUGSAT 1 03 Aug 00:10:23 00:13:35 22° 95° (E) 00:16:54 437.445
VERMONT LUNAR 03 Aug 00:14:38 00:17:00 19° 214° (SW) 00:19:18 437.305
POPSAT HIP 1 03 Aug 00:15:39 00:19:46 46° 99° (E) 00:23:53 437.405
QB50P2 03 Aug 00:23:44 00:27:58 61° 100° (E) 00:32:12 145.880/145.840
UNISAT 6 03 Aug 00:25:34 00:30:07 48° 286° (WNW) 00:34:38 437.425
M-CUBED/EXP-1 PRIME 03 Aug 00:25:36 00:28:46 17° 298° (WNW) 00:31:42 437.505
SPROUT 03 Aug 00:28:52 00:32:51 40° 74° (ENE) 00:36:52 437.525
VELOX 1 03 Aug 00:30:44 00:34:32 27° 264° (W) 00:38:16 145.980
50 SAT 03 Aug 00:31:41 00:34:31 19° 266° (W) 00:37:17 437.505
TISAT 1 03 Aug 00:33:38 00:37:09 27° 71° (ENE) 00:40:43 437.305
DUCHIFAT 1 03 Aug 00:46:05 00:50:20 77° 283° (WNW) 00:54:35 145.980
RS-15 03 Aug 00:49:28 00:57:44 22° 330° (NNW) 01:05:51 29.354- 29.394
ESTCUBE 1 03 Aug 00:49:57 00:53:46 25° 265° (W) 00:57:30 437.505/2401.250
QB50P1 03 Aug 00:50:53 00:55:07 64° 284° (WNW) 00:59:19 145.935-145.965
NANOSAT C BR1 03 Aug 00:51:18 00:55:32 65° 284° (WNW) 00:59:44 145.865
AUBIESAT-1 03 Aug 00:55:24 00:56:04 10° 301° (WNW) 00:56:27 437.475
PHONESAT 2.4 03 Aug 00:57:53 01:01:23 74° 205° (SSW) 01:04:52 2401.200-2431.200
BEESAT 2 03 Aug 01:03:04 01:05:51 17° 311° (NW) 01:08:32 435.950
AIST 2 03 Aug 01:09:00 01:13:12 62° 301° (WNW) 01:17:26 435.215
TIGRISAT 03 Aug 01:09:11 01:12:27 18° 291° (WNW) 01:15:34 435.000
ITUPSAT 1 03 Aug 01:10:57 01:12:52 13° 65° (ENE) 01:15:03 437.325
ANTELSAT 03 Aug 01:12:02 01:15:05 17° 292° (WNW) 01:17:56 437.575/2403.000
O/OREOS (USA 219) 03 Aug 01:23:13 01:27:23 41° 105° (ESE) 01:31:37 437.305
Oscar 19 03 Aug 01:32:04 01:33:17 11° 89° (E) 01:34:54 437.125/150
Cosmos 2491 03 Aug 01:32:34 01:40:08 33° 273° (W) 01:47:30 435.465 / 435.565
POLYITAN 1 03 Aug 01:35:57 01:39:07 20° 290° (WNW) 01:42:10 437.675
BUGSAT 1 03 Aug 01:45:42 01:49:01 23° 289° (WNW) 01:52:15 437.445
YUBILEINY 03 Aug 01:48:11 01:56:40 54° 282° (WNW) 02:05:11 435.215
POPSAT HIP 1 03 Aug 01:53:06 01:55:17 13° 292° (WNW) 01:57:15 437.405
Cosmos 2504 03 Aug 02:01:39 02:06:04 19° 82° (E) 02:11:04 435.465 / 435.565
QB50P2 03 Aug 02:02:34 02:03:24 10° 294° (WNW) 02:03:57 145.880/145.840
BEESAT 03 Aug 02:02:53 02:07:26 46° 73° (ENE) 02:12:02 436.000
SPROUT 03 Aug 02:06:49 02:09:10 14° 269° (W) 02:11:17 437.525
TISAT 1 03 Aug 02:09:46 02:12:55 20° 266° (W) 02:15:58 437.305
JUGNU 03 Aug 02:19:18 02:19:32 10° 166° (SSE) 02:19:54 437.505
SWISSCUBE 03 Aug 02:23:29 02:28:17 85° 76° (ENE) 02:33:06 437.505
KKS-1 03 Aug 02:26:12 02:27:34 12° 66° (ENE) 02:29:11 437.445
PHONESAT 2.4 03 Aug 02:37:09 02:38:59 13° 217° (SW) 02:40:43 2401.200-2431.200
Gurwin Techsat 1B 03 Aug 02:45:01 02:48:32 18° 92° (E) 02:52:15 435.225
ITUPSAT 1 03 Aug 02:45:30 02:50:17 63° 259° (W) 02:55:04 437.325
ITAMSAT 1 03 Aug 02:55:25 02:59:03 20° 93° (E) 03:02:51 435.822/435.867
O/OREOS (USA 219) 03 Aug 03:04:05 03:07:03 17° 302° (WNW) 03:09:52 437.305
Oscar 19 03 Aug 03:08:04 03:13:15 72° 284° (WNW) 03:18:25 437.125/150
RS-15 03 Aug 03:11:32 03:16:28 13° 6° (N) 03:21:37 29.354- 29.394
STARS 03 Aug 03:27:53 03:31:46 33° 72° (ENE) 03:35:44 437.465
BEESAT 03 Aug 03:42:35 03:45:33 16° 268° (W) 03:48:20 436.000
ISS 03 Aug 03:44:49 03:47:57 44° 38° (NE) 03:51:05 145.825
Cosmos 2504 03 Aug 03:50:28 03:57:30 66° 280° (W) 04:05:04 435.465 / 435.565
KKS-1 03 Aug 03:59:24 04:03:45 58° 259° (W) 04:08:08 437.445
JUGNU 03 Aug 04:04:18 04:07:49 16° 175° (S) 04:11:21 437.505
AO-7 03 Aug 04:07:14 04:12:59 21° 92° (E) 04:19:06 29.400- 29.500
JAS-2 03 Aug 04:11:33 04:19:13 54° 98° (E) 04:26:38 435.910
SRMSAT 03 Aug 04:14:15 04:15:13 10° 166° (SSE) 04:16:18 437.500
Gurwin Techsat 1B 03 Aug 04:23:43 04:28:48 47° 288° (WNW) 04:33:51 435.225
DANDE 03 Aug 04:33:46 04:36:32 25° 98° (E) 04:38:59 436.750
ITAMSAT 1 03 Aug 04:33:54 04:38:46 42° 288° (WNW) 04:43:35 435.822/435.867
CUSAT 1 03 Aug 04:38:45 04:41:39 62° 97° (E) 04:44:15 437.405
HORYU 2 03 Aug 05:00:01 05:04:23 48° 99° (E) 05:08:44 437.375
MOZHAYETS 4 03 Aug 05:04:42 05:09:19 77° 77° (ENE) 05:14:00
STARS 03 Aug 05:05:17 05:08:20 18° 267° (W) 05:11:14 437.465
ISS 03 Aug 05:22:19 05:24:07 14° 231° (SW) 05:25:50 145.825
RS-15 03 Aug 05:24:40 05:34:29 31° 39° (NE) 05:44:56 29.354- 29.394
CUBESAT XI-V 03 Aug 05:31:17 05:32:29 11° 66° (ENE) 05:33:59 437.345
JUGNU 03 Aug 05:52:36 05:56:07 16° 185° (S) 05:59:36 437.505
JAS-2 03 Aug 05:57:10 06:03:51 31° 294° (WNW) 06:10:14 435.910
AO-7 03 Aug 05:58:15 06:06:34 72° 290° (WNW) 06:14:47 29.400- 29.500
SRMSAT 03 Aug 06:00:08 06:03:38 16° 176° (S) 06:07:10 437.500
CUTE-I 03 Aug 06:20:34 06:20:46 10° 88° (E) 06:21:23 437.470
GONETS M04 03 Aug 06:29:36 06:38:10 67° 93° (E) 06:46:46
HORYU 2 03 Aug 06:38:09 06:40:39 14° 293° (WNW) 06:42:55 437.375
Cosmos 2499 03 Aug 06:46:21 06:49:52 15° 81° (E) 06:54:02 435.465 / 435.565
STRAND 1 03 Aug 06:49:40 06:53:48 26° 69° (ENE) 06:58:03 437.568
Cubesat XI-IV 03 Aug 07:01:31 07:06:06 30° 96° (E) 07:10:45 437.490
CUBESAT XI-V 03 Aug 07:04:47 07:09:26 67° 259° (W) 07:14:06 437.345
PRISM 03 Aug 07:14:14 07:17:58 32° 72° (ENE) 07:21:43 437.425
RS-15 03 Aug 07:36:36 07:48:30 83° 243° (WSW) 08:00:46 29.354- 29.394
BEESAT 2 03 Aug 07:47:04 07:48:37 12° 45° (NE) 07:50:21 435.950
SRMSAT 03 Aug 07:48:39 07:52:05 16° 186° (S) 07:55:29 437.500
PCSat 03 Aug 07:53:29 07:55:31 12° 105° (ESE) 07:57:54 145.827
AO-7 03 Aug 07:54:01 07:58:06 14° 307° (NW) 08:01:41 29.400- 29.500
CUTE-I 03 Aug 07:56:14 08:01:33 79° 285° (WNW) 08:06:51 437.470
SO-50 03 Aug 08:12:29 08:14:58 15° 109° (ESE) 08:17:42 436.795
BEESAT 3 03 Aug 08:22:03 08:25:44 34° 55° (NE) 08:29:23 437.485
STRAND 1 03 Aug 08:28:16 08:32:53 32° 263° (W) 08:37:28 437.568
GONETS M04 03 Aug 08:29:05 08:35:50 23° 292° (WNW) 08:42:13
Cosmos 2499 03 Aug 08:34:36 08:41:58 82° 277° (W) 08:50:00 435.465 / 435.565
Cubesat XI-IV 03 Aug 08:41:34 08:46:10 29° 291° (WNW) 08:50:40 437.490
GOMX 1 03 Aug 08:47:39 08:51:36 27° 96° (E) 08:55:52 467.674
BRITE-PL 03 Aug 08:47:58 08:52:19 47° 100° (E) 08:57:01 437.365/2234.400
PRISM 03 Aug 08:50:38 08:53:29 17° 267° (W) 08:56:11 437.425
HO-68 03 Aug 09:05:44 09:11:40 28° 95° (E) 09:17:46 435.675
COMPASS 1 03 Aug 09:13:57 09:15:47 13° 90° (E) 09:17:50 437.405
BEESAT 2 03 Aug 09:23:07 09:27:08 61° 243° (WSW) 09:31:03 435.950
SEEDS 03 Aug 09:31:20 09:34:59 28° 95° (E) 09:38:39 437.485
PCSat 03 Aug 09:33:01 09:38:24 71° 299° (WNW) 09:43:50 145.827
AIST 2 03 Aug 09:33:38 09:37:27 33° 54° (NE) 09:41:13 435.215
M-CUBED/EXP-1 PRIME 03 Aug 09:34:56 09:38:39 36° 67° (ENE) 09:42:42 437.505
CUTE 1.7 + AOD 2 03 Aug 09:37:38 09:41:43 42° 98° (E) 09:45:47 437.475
CANX-2 03 Aug 09:46:16 09:50:32 62° 100° (E) 09:54:45 2200.000
SO-50 03 Aug 09:50:25 09:55:03 54° 303° (WNW) 09:59:52 436.795
AAUSAT CUBESAT 2 03 Aug 09:51:47 09:55:31 31° 96° (E) 09:59:15 437.432
Oscar 11 03 Aug 09:52:09 09:54:10 13° 91° (E) 09:56:24 145.826/435.025
RS-15 03 Aug 09:52:14 09:59:44 18° 258° (WSW) 10:06:19 29.354- 29.394
UWE-3 03 Aug 09:52:14 09:53:47 12° 89° (E) 09:55:39 435.000/436.395/437.385
CINEMA 3 03 Aug 09:54:55 09:59:23 39° 98° (E) 10:04:01 145.822/145.860
BEESAT 3 03 Aug 10:00:44 10:03:25 17° 249° (WSW) 10:05:55 437.485
AUBIESAT-1 03 Aug 10:01:40 10:05:41 65° 71° (ENE) 10:10:03 437.475
DOVE 4 03 Aug 10:02:15 10:06:57 76° 284° (WNW) 10:11:58 437.250
YUBILEINY 03 Aug 10:10:28 10:11:25 10° 58° (ENE) 10:13:15 435.215
CUBEBUG 2 03 Aug 10:10:45 10:14:38 26° 95° (E) 10:18:38 437.445
GOMX 1 03 Aug 10:25:48 10:29:41 26° 288° (WNW) 10:33:41 467.674
BRITE-PL 03 Aug 10:27:59 10:30:37 15° 290° (WNW) 10:33:07 437.365/2234.400
TIGRISAT 03 Aug 10:28:06 10:31:32 24° 70° (ENE) 10:35:07 435.000
ANTELSAT 03 Aug 10:30:44 10:34:21 27° 71° (ENE) 10:38:08 437.575/2403.000
Cosmos 2499 03 Aug 10:33:33 10:36:50 12° 300° (WNW) 10:39:35 435.465 / 435.565
COMPASS 1 03 Aug 10:47:43 10:51:43 42° 286° (WNW) 10:55:40 437.405
POLYITAN 1 03 Aug 10:50:52 10:53:24 16° 69° (ENE) 10:56:06 437.675
HO-68 03 Aug 10:52:47 10:59:39 49° 291° (WNW) 11:06:26 435.675
DELFI C3 03 Aug 10:56:17 11:00:14 51° 100° (E) 11:04:09 145.870
ZACube-1 03 Aug 10:56:56 11:01:23 49° 99° (E) 11:05:51 437.345
BUGSAT 1 03 Aug 10:59:51 11:00:54 11° 68° (ENE) 11:02:12 437.445
POPSAT HIP 1 03 Aug 11:06:06 11:09:25 24° 71° (ENE) 11:12:48 437.405
SEEDS 03 Aug 11:07:23 11:10:38 21° 290° (WNW) 11:13:44 437.485
M-CUBED/EXP-1 PRIME 03 Aug 11:11:02 11:13:40 16° 265° (W) 11:16:16 437.505
AIST 2 03 Aug 11:12:51 11:15:47 18° 249° (WSW) 11:18:33 435.215
QB50P2 03 Aug 11:14:00 11:17:40 30° 72° (ENE) 11:21:23 145.880/145.840
CUTE 1.7 + AOD 2 03 Aug 11:14:53 11:17:18 14° 292° (WNW) 11:19:31 437.475
FUNcube-1 03 Aug 11:17:26 11:22:01 83° 104° (ESE) 11:26:36 145.935
UNISAT 6 03 Aug 11:21:20 11:25:40 78° 258° (WSW) 11:30:09 437.425
PCSat 03 Aug 11:21:54 11:22:55 10° 318° (NW) 11:23:38 145.827
HUMSAT D 03 Aug 11:24:15 11:28:17 38° 98° (E) 11:32:20 437.325/437.525
CANX-2 03 Aug 11:25:21 11:25:58 10° 293° (WNW) 11:26:19 2200.000
UWE-3 03 Aug 11:26:09 11:30:43 58° 284° (WNW) 11:35:18 435.000/436.395/437.385
Oscar 11 03 Aug 11:26:28 11:30:37 44° 286° (WNW) 11:34:44 145.826/435.025
AAUSAT CUBESAT 2 03 Aug 11:27:58 11:30:54 18° 290° (WNW) 11:33:41 437.432
UKube-1 03 Aug 11:28:27 11:31:55 24° 95° (E) 11:35:27 .
CINEMA 3 03 Aug 11:32:51 11:36:21 20° 290° (WNW) 11:39:46 145.822/145.860
DUCHIFAT 1 03 Aug 11:35:20 11:39:22 51° 75° (ENE) 11:43:27 145.980
O/OREOS (USA 219) 03 Aug 11:35:48 11:40:15 49° 66° (ENE) 11:44:43 437.305
QB50P1 03 Aug 11:40:25 11:44:32 62° 76° (ENE) 11:48:42 145.935-145.965
NANOSAT C BR1 03 Aug 11:40:38 11:44:45 61° 76° (ENE) 11:48:54 145.865
AISAT 03 Aug 11:45:33 11:49:10 25° 96° (E) 11:52:52 437.250
CUBEBUG 2 03 Aug 11:47:16 11:51:15 28° 289° (WNW) 11:55:13 437.445
CUBEBUG 1 03 Aug 11:52:50 11:55:28 16° 92° (E) 11:58:17 437.445
DX 1 03 Aug 11:59:42 12:04:01 64° 102° (ESE) 12:08:20 434.975-435.025
YUBILEINY 03 Aug 12:01:37 12:10:25 67° 81° (E) 12:19:11 435.215
TIGRISAT 03 Aug 12:04:34 12:08:12 25° 265° (W) 12:11:50 435.000
ANTELSAT 03 Aug 12:07:38 12:11:07 23° 266° (W) 12:14:35 437.575/2403.000
50 SAT 03 Aug 12:08:34 12:12:29 57° 100° (E) 12:16:23 437.505
VELOX 1 03 Aug 12:23:14 12:27:37 68° 101° (ESE) 12:32:00 145.980
POLYITAN 1 03 Aug 12:25:11 12:29:03 35° 263° (W) 12:32:55 437.675
AIST 1 03 Aug 12:30:28 12:34:49 80° 97° (E) 12:39:10
BUGSAT 1 03 Aug 12:32:04 12:36:00 49° 260° (W) 12:39:55 437.445
Cosmos 2491 03 Aug 12:32:13 12:40:43 60° 92° (E) 12:49:17 435.465 / 435.565
DELFI C3 03 Aug 12:33:47 12:34:53 11° 293° (WNW) 12:35:44 145.870
ZACube-1 03 Aug 12:34:47 12:37:21 15° 292° (WNW) 12:39:44 437.345
POPSAT HIP 1 03 Aug 12:41:48 12:45:12 23° 265° (W) 12:48:34 437.405
ESTCUBE 1 03 Aug 12:44:37 12:49:08 83° 103° (ESE) 12:53:37 437.505/2401.250
Oscar 19 03 Aug 12:46:00 12:48:11 13° 65° (ENE) 12:50:39 437.125/150
QB50P2 03 Aug 12:50:39 12:53:37 18° 267° (W) 12:56:29 145.880/145.840
HUMSAT D 03 Aug 13:00:58 13:03:44 16° 291° (WNW) 13:06:20 437.325/437.525
UKube-1 03 Aug 13:04:26 13:08:00 25° 290° (WNW) 13:11:27 .
DUCHIFAT 1 03 Aug 13:14:35 13:15:33 10° 270° (W) 13:16:15 145.980
O/OREOS (USA 219) 03 Aug 13:17:02 13:19:18 13° 260° (W) 13:21:19 437.305
AISAT 03 Aug 13:22:03 13:25:40 25° 290° (WNW) 13:29:13 437.250
CUBEBUG 1 03 Aug 13:28:00 13:31:59 36° 287° (WNW) 13:35:56 437.445
DX 1 03 Aug 13:39:08 13:39:47 10° 294° (WNW) 13:40:09 434.975-435.025
Cosmos 2504 03 Aug 13:39:36 13:47:10 36° 74° (ENE) 13:54:59 435.465 / 435.565
SPROUT 03 Aug 13:53:56 13:58:12 65° 284° (WNW) 14:02:27 437.525
TISAT 1 03 Aug 13:55:40 13:59:54 77° 101° (E) 14:04:07 437.305
YUBILEINY 03 Aug 14:00:00 14:06:35 23° 276° (W) 14:12:45 435.215
Gurwin Techsat 1B 03 Aug 14:03:15 14:07:15 23° 68° (ENE) 14:11:25 435.225
BEESAT 03 Aug 14:07:32 14:10:04 15° 91° (E) 14:12:50 436.000
ITAMSAT 1 03 Aug 14:10:34 14:14:35 24° 68° (ENE) 14:18:44 435.822/435.867
Oscar 19 03 Aug 14:21:57 14:27:02 67° 258° (WSW) 14:32:09 437.125/150
JAS-2 03 Aug 14:23:05 14:26:33 16° 60° (ENE) 14:30:34 435.910
SWISSCUBE 03 Aug 14:27:20 14:31:19 27° 95° (E) 14:35:22 437.505
Cosmos 2491 03 Aug 14:31:01 14:38:13 26° 291° (WNW) 14:45:06 435.465 / 435.565
ITUPSAT 1 03 Aug 14:49:12 14:53:43 42° 99° (E) 14:58:14 437.325
AO-7 03 Aug 15:03:25 15:09:39 25° 59° (ENE) 15:16:10 29.400- 29.500
DANDE 03 Aug 15:13:01 15:16:22 22° 78° (ENE) 15:20:37 436.750
CUSAT 1 03 Aug 15:13:56 15:18:18 40° 80° (E) 15:24:01 437.405
Cosmos 2504 03 Aug 15:31:31 15:39:32 46° 270° (W) 15:47:30 435.465 / 435.565
Gurwin Techsat 1B 03 Aug 15:42:04 15:47:01 39° 262° (W) 15:51:58 435.225
BEESAT 03 Aug 15:43:38 15:48:14 48° 287° (WNW) 15:52:47 436.000
ITAMSAT 1 03 Aug 15:49:04 15:53:54 37° 262° (W) 15:58:42 435.822/435.867
KKS-1 03 Aug 15:53:34 15:57:34 32° 97° (E) 16:01:37 437.445
HORYU 2 03 Aug 15:55:34 15:59:27 31° 71° (ENE) 16:03:25 437.375
JAS-2 03 Aug 16:04:37 16:10:40 80° 258° (WSW) 16:17:37 435.910
SWISSCUBE 03 Aug 16:05:06 16:09:07 27° 290° (WNW) 16:13:01 437.505
ITUPSAT 1 03 Aug 16:28:03 16:31:19 18° 292° (WNW) 16:34:25 437.325
GONETS M04 03 Aug 16:44:12 16:51:15 28° 70° (ENE) 16:58:37
VERMONT LUNAR 03 Aug 16:44:34 16:47:05 22° 147° (SSE) 16:49:40 437.305
AO-7 03 Aug 16:53:29 17:01:50 70° 256° (WSW) 17:10:11 29.400- 29.500
DANDE 03 Aug 16:55:35 16:59:24 29° 263° (W) 17:04:07 436.750
STARS 03 Aug 16:56:06 17:00:33 79° 283° (WNW) 17:04:58 437.465
CUSAT 1 03 Aug 16:57:10 17:00:50 20° 264° (W) 17:05:00 437.405
MOZHAYETS 4 03 Aug 17:03:34 17:07:08 23° 94° (E) 17:10:49
KKS-1 03 Aug 17:30:42 17:34:01 20° 291° (WNW) 17:37:10 437.445
HORYU 2 03 Aug 17:32:48 17:36:09 20° 266° (W) 17:39:24 437.375
CUTE-I 03 Aug 17:38:07 17:40:51 15° 65° (ENE) 17:43:51 437.470
